Overview Statistics Trail Chart Weather Telemetry Raw packets
 

This is the latest recevied weather packets stored in our database for station/object DH2PG-6. If no packets are shown the sender has not sent any weather packets the latest 10 day(s).

<< 17 18 19 20 21 22 23 >>
Time Temp. Humidity Pressure Rain* Wind** Luminosity Snow
1788522632 25° C 63% 1012.5 hPa 0 mm - - -
1788522332 25° C 62% 1012.3 hPa 0 mm - - -
1788522032 25° C 63% 1012.5 hPa 0 mm - - -
1788521731 25° C 64% 1012.6 hPa 0 mm - - -
1788521431 24.44° C 65% 1012.6 hPa 0 mm - - -
1788521131 24.44° C 66% 1012.7 hPa 0 mm - - -
1788520831 24.44° C 66% 1012.6 hPa 0 mm - - -
1788520230 23.89° C 67% 1012.8 hPa 0 mm - - -
1788519930 23.89° C 67% 1012.9 hPa 0 mm - - -
1788519630 23.89° C 67% 1012.9 hPa 0 mm - - -
1788519029 23.89° C 67% 1012.9 hPa 0 mm - - -
1788518729 23.89° C 67% 1013 hPa 0 mm - - -
1788518428 23.89° C 67% 1013.1 hPa 0 mm - - -
1788518128 23.89° C 66% 1013 hPa 0 mm - - -
1788517835 24.44° C 66% 1013 hPa 0 mm - - -
1788517527 24.44° C 67% 1013 hPa 0 mm - - -
1788517227 24.44° C 69% 1013.2 hPa 0 mm - - -
1788516927 23.89° C 70% 1013.2 hPa 0 mm - - -
1788516627 23.33° C 71% 1013.1 hPa 0 mm - - -
1788516326 22.78° C 71% 1013.2 hPa 0 mm - - -
1788516026 22.78° C 72% 1013.1 hPa 0 mm - - -
1788515726 22.78° C 71% 1013.1 hPa 0 mm - - -
1788515425 22.78° C 73% 1013 hPa 0 mm - - -
1788515125 22.78° C 74% 1013.2 hPa 0 mm - - -
1788514840 22.78° C 75% 1013.1 hPa 0 mm - - -

* Rain latest hour (hover to see other rain measurements)
** Current wind speed in m/s (hover to see current wind gust speed)